weather.gov     
National Weather Service

Regional Weather Roundup
NWS Homepage
This page is being discontinued on March 12, 2014.
The same data is available at this site. Please update your bookmarks.
Thank you, and we apologize for the inconvenience.
Please send an email to SR-SRH.Webmaster@noaa.gov with any concerns.


Current Version
Previous Version:    01  02  03  04  05  06  07  08  09  10  11  12  13  14  15  16  17  18  19  20  21  22  23  24  25  26  
[Printable]
790
ASUS44 KLCH 310910
RWRLCH
RWRLCH
REGIONAL WEATHER ROUNDUP
NATIONAL WEATHER SERVICE LAKE CHARLES LA
400 AM CDT THU JUL 31 2014

Note: "fair" indicates few or no clouds below 12,000 feet with no
significant weather and/or obstructions to visibility.


ACROSS SOUTHEAST TEXAS

CITY           SKY/WX    TMP DP  RH WIND       PRES   REMARKS
BEAUMONT       CLOUDY    78  72  81 S6        29.96F
BEAUMONT CITY  PTSUNNY   76  73  92 CALM      29.98S
ORANGE         CLOUDY    76  70  82 N3        30.00R
JASPER         MOCLDY    71  65  84 CALM      30.01F
$$

ACROSS CENTRAL LOUISIANA

CITY           SKY/WX    TMP DP  RH WIND       PRES   REMARKS
LEESVILLE      PTCLDY    73  63  70 E5        30.00R
FULLERTON        N/A     71  65  81 CALM      29.98S
ALEXANDRIA INT MOCLDY    74  64  71 E3        29.99R
ESLER FIELD    MOCLDY    72  67  84 CALM      30.00F
DERIDDER         N/A     72  64  74 CALM      30.01S
OAKDALE        PTSUNNY   69  67  93 CALM      30.00R
OPELOUSAS        N/A     68  67  94 CALM      29.98F
$$

ACROSS SOUTHWEST AND SOUTH CENTRAL LOUISIANA

CITY           SKY/WX    TMP DP  RH WIND       PRES   REMARKS
SULPHUR        PTSUNNY   75  68  77 E5        29.98F
LAKE CHARLES   CLOUDY    74  67  78 E3        29.98F
CHENNAULT INT  MOCLDY    73  66  78 CALM      29.99F
CAMERON PHI    MOSUNNY   75  70  83 E7        29.98F
DEQUINCY         N/A     72  66  82 CALM      29.99S
JENNINGS         N/A     71  67  87 CALM      29.99S
LAFAYETTE      PTCLDY    72  68  87 CALM      29.99F
NEW IBERIA     PTCLDY    71  68  90 N3        30.00S
ABBEVILLE        N/A     68  67  96 CALM      29.99S
PATTERSON      CLEAR     72  68  88 CALM      30.01F
SALT POINT       N/A     75  70  84 CALM      29.97F
$$

SELECTED SITES ACROSS THE REGION

CITY           SKY/WX    TMP DP  RH WIND       PRES   REMARKS
HOUSTON BUSH   PTCLDY    79  74  84 S3        29.94F
HOUSTON HOBBY  MOCLDY    79  74  84 S3        29.95F
GALVESTON      PTCLDY    83  75  77 SE13      29.96F
COLLEGE STAT   PTCLDY    78  72  81 S7        29.95F
CONROE         PTCLDY    74  73  97 CALM      29.97F
HUNTSVILLE     CLEAR     78  73  84 S6        29.95F
LUFKIN         MOCLDY    76  67  73 SE6       29.98F
SHREVEPORT     CLOUDY    74  64  71 E6        30.01R
MONROE         CLOUDY    71  65  81 NE5       30.04R
NATCHEZ MS     CLOUDY    72  61  68 E5        30.02S
BATON ROUGE    MOCLDY    70  64  81 E6        29.99F
N.O. INTL ARPT PTCLDY    74  63  68 SE3       29.98F
SLIDELL        PTCLDY    65  63  93 N3        29.99F
$$

MARINE REPORTS

STATION/POSITION TIME  TEMP    WIND        PRES    VSBY  WAVE
                       AIR SEA DIR/SP/G                  HT/PER
                 (UTC) (F)     (DEG/KT/KT) (MB)    (MI)  (FT/S)
BUOY 30 S HIGH I NOT AVBL
SEA RIM ST PARK  0900   83     170/  8/ 10 1015.1F
PORT ARTHUR      0900      87  160/  4/  7 1014.9F
SABINE PASS N    0900   82 86  180/  6/  8 1014.8F
TEXAS POINT      0900   83 86  170/ 11/ 14 1014.9F
CALCASIEU PASS   0900   81 87  130/ 10/ 12 1015.8F
LK CHARLES BEACH 0900   75 85              1015.9F
MARSH ISLAND     0800   82     130/ 11/ 12   N/A
FRESH WATER LOCK 0900   78 87  110/  5/  7 1014.7F
AMERADA PASS     0900   76 84  100/  4/  5 1015.1F
$$




U.S. Dept. of Commerce
NOAA National Weather Service
1325 East West Highway
Silver Spring, MD 20910
E-mail: w-nws.webmaster@noaa.gov
Page last modified: May 16, 2007
NATIONAL WEATHER SERVICE: for Safety, for Work, for Fun - FOR LIFE